Regional Weather Roundup
Issued by NWS Raleigh/Durham, NC

Home | Current Version | Previous Version | Text Only | Print | Product List | Glossary On
Versions: 1 2 3 4 5 6 7 8 9 10 11 12 13 14 15 16 17 18 19 20 21 22 23 24 25 26 27 28 29 30 31 32 33 34 35 36 37 38 39 40 41 42 43 44 45 46 47 48 49 50
000
ASUS42 KRAH 211610
RWRRAH
NORTH CAROLINA WEATHER ROUNDUP
NATIONAL WEATHER SERVICE RALEIGH NC
1200 PM EDT MON MAY 21 2018

NOTE: "FAIR" INDICATES FEW OR NO CLOUDS BELOW 12,000 FEET WITH NO
SIGNIFICANT WEATHER AND/OR OBSTRUCTIONS TO VISIBILITY.

NCZ001-053-055-056-065-067-211700-
WESTERN NORTH CAROLINA

CITY           SKY/WX    TMP DP  RH WIND       PRES   REMARKS
ASHEVILLE      PTSUNNY   72  64  76 VRB3      30.24S
JEFFERSON      CLOUDY    71  63  75 SE8       30.26S
MORGANTON      FAIR      75  67  76 CALM      30.22S
HICKORY        PTSUNNY   74  69  85 CALM      30.18S
RUTHERFORDTON  CLOUDY    74  69  85 CALM      30.19S
MOUNT AIRY     NOT AVBL
BOONE          FAIR      73  60  63 CALM      30.27R
$$

NCZ021-022-025-041-071-084-088-211700-
CENTRAL NORTH CAROLINA

CITY           SKY/WX    TMP DP  RH WIND       PRES   REMARKS
CHARLOTTE      PTSUNNY   75  70  84 SW6       30.19R
GREENSBORO     CLOUDY    77  67  71 N6        30.17S
WINSTON-SALEM  FAIR      77  68  73 NE7       30.19S
RALEIGH-DURHAM CLOUDY    80  71  74 W5        30.16S
FORT BRAGG     FAIR      80  66  62 SW8       30.15F
FAYETTEVILLE   FAIR      82  66  58 SW7       30.15F
BURLINGTON     FAIR      80  68  66 CALM      30.16S
LAURINBURG     FAIR      79  69  71 S7        30.17F
$$

NCZ011-015-027-028-043-044-047-080-103-211700-
NORTHEASTERN NORTH CAROLINA

CITY           SKY/WX    TMP DP  RH WIND       PRES   REMARKS
ROCKY MT-WILSO FAIR      81  70  69 VRB3      30.15S
GREENVILLE     FAIR      81  70  69 W5        30.16S
WASHINGTON     PTSUNNY   80  71  74 SW6       30.16S
ELIZABETH CITY CLOUDY    83  74  74 NE6       30.15R
MANTEO         PTSUNNY   78  72  81 N6        30.16S
CAPE HATTERAS  FAIR      79  72  79 SW10      30.16S
$$

NCZ078-087-090-091-093-098-101-211700-
SOUTHEASTERN NORTH CAROLINA

CITY           SKY/WX    TMP DP  RH WIND       PRES   REMARKS
LUMBERTON      FAIR      81  69  67 SW7       30.16F
GOLDSBORO      PTSUNNY   81  68  65 S8        30.15F
KINSTON        FAIR      81  70  69 S8        30.17R
KENANSVILLE    FAIR      81  70  69 W5        30.17F
NEW BERN       FAIR      82  72  71 W8        30.16F
CHERRY POINT   MOSUNNY   86  72  62 W12       30.17S
BEAUFORT       FAIR      77  71  82 SW15      30.18R
JACKSONVILLE   FAIR      82  70  66 W12       30.16F
WILMINGTON     FAIR      83  68  60 W7        30.17F
$$




USA.gov is the U.S. government's official web portal to all federal, state and local government web resources and services.